Theta_e
309 309 310 311 311 312 313 313 311 311 311 312 311 311 311 311 310 310 308 308 308 308 307 307 306 304 303 303 303 302 301 300 299 297 297 297 297 297 296 297 297 298 299 300 301 301 302 302 302 301 300 299 299 299 300 300 300 300 300 299 300 300 301 300 299 299 299 299 298
307 308 309 308 309 311 313 313 312 312 312 313 312 311 311 310 310 310 309 307 306 304 304 303 302 302 302 301 300 299 299 298 297 296 296 296 296 296 296 296 296 296 297 297 297 298 298 299 299 299 298 297 297 297 297 298 298 298 298 298 298 298 298 298 298 298 298 298 298
307 308 308 309 309 310 312 312 313 314 314 313 313 313 312 311 310 309 309 308 306 304 303 302 301 301 301 301 300 300 299 298 297 297 296 295 295 295 295 295 295 295 295 296 296 296 296 296 297 296 297 297 296 296 296 297 297 297 297 297 297 297 297 296 297 297 297 297 297
308 307 308 308 308 309 309 310 312 314 315 314 314 313 313 311 310 309 309 308 306 305 303 303 302 302 301 301 301 300 299 298 298 298 297 296 295 295 295 295 294 294 295 295 295 295 295 294 294 294 294 295 295 296 296 295 295 295 295 295 295 295 295 295 296 296 296 296 296
307 307 307 307 308 308 309 310 311 313 314 315 314 313 312 312 311 310 309 307 306 305 304 303 302 302 302 301 300 299 299 298 297 298 298 296 295 295 295 295 295 295 295 295 295 294 294 294 293 293 293 293 294 294 295 294 294 294 294 294 294 295 294 294 295 295 295 295 295
307 307 307 307 308 308 309 309 310 311 313 313 313 312 312 311 310 310 308 307 306 305 304 302 300 300 300 301 300 299 299 299 299 298 298 297 297 297 297 296 296 296 296 295 295 294 294 294 293 293 293 293 293 293 293 294 294 293 293 294 294 294 294 294 294 294 294 294 294
305 305 306 307 308 309 309 309 310 311 311 312 313 313 312 312 311 310 309 307 305 304 302 301 300 300 299 300 299 299 299 299 299 299 298 298 297 297 297 296 296 295 295 294 294 294 293 293 292 291 291 291 291 291 292 293 293 292 292 292 293 293 293 293 293 293 293 293 293
304 304 305 306 307 308 308 308 308 309 310 311 312 312 312 312 311 310 309 307 305 303 302 301 301 301 300 299 299 299 299 299 299 299 298 297 297 297 297 296 296 296 295 295 294 294 293 293 292 291 291 291 291 291 291 292 292 292 292 291 292 293 293 293 292 293 292 292 292
303 304 305 305 306 306 306 307 307 307 309 310 311 311 312 311 311 310 308 306 304 303 302 301 301 301 301 300 300 299 299 299 299 298 297 297 296 296 296 296 296 296 296 296 295 295 294 294 293 293 292 292 292 292 292 292 292 291 291 291 292 292 293 293 293 293 293 293 292
303 304 304 305 305 306 306 306 306 306 307 308 310 311 310 308 309 309 308 305 304 303 302 301 301 300 300 301 300 300 300 300 299 298 297 297 296 296 296 296 296 296 296 296 296 296 295 295 294 294 293 293 293 293 293 293 292 292 291 291 292 292 292 292 293 293 293 293 292
303 303 304 304 305 305 305 306 305 305 305 307 309 310 310 308 308 309 308 305 303 302 302 301 301 300 300 300 301 300 300 300 299 298 297 297 297 297 297 296 296 296 296 296 297 297 296 295 295 294 294 294 294 294 294 294 293 292 292 291 292 292 292 292 292 292 292 292 292
302 303 303 304 304 305 305 305 304 304 304 306 307 309 310 309 308 307 306 305 303 302 302 302 301 301 301 300 300 300 299 299 299 298 297 297 297 297 297 297 297 297 297 297 297 297 297 296 295 294 294 294 294 294 294 293 293 292 292 291 291 291 291 291 292 292 292 292 291
302 302 303 303 304 304 304 304 304 304 304 305 307 308 309 308 307 306 305 304 303 302 301 302 302 301 301 300 300 299 299 299 299 298 298 297 297 297 297 297 297 297 298 297 298 297 297 296 295 294 294 293 293 293 293 293 292 292 291 291 291 291 291 291 291 292 292 291 291
301 302 302 303 303 304 304 304 303 304 304 305 307 308 308 307 306 304 304 304 302 301 301 302 302 301 301 301 300 300 299 299 299 299 298 298 298 298 298 298 298 298 298 298 298 298 297 296 295 294 293 293 293 293 293 292 292 291 291 291 290 290 290 290 291 291 291 290 290
300 301 301 302 302 302 303 303 303 303 304 306 307 308 308 307 305 304 303 303 302 302 301 301 302 302 301 301 300 300 299 299 299 299 298 298 298 298 298 298 299 299 298 298 298 297 297 296 295 294 294 293 293 292 292 292 292 291 291 290 290 290 290 290 290 290 290 290 289
299 300 300 301 301 302 302 303 303 303 303 305 307 307 307 306 305 304 303 303 302 302 301 301 301 302 302 301 300 300 299 299 299 299 298 298 298 299 299 299 299 299 298 298 297 297 296 295 295 295 294 293 293 293 292 292 292 291 291 291 290 290 290 290 290 290 290 290 289
298 299 300 300 300 301 301 302 302 303 303 303 305 306 307 306 305 304 302 302 301 301 301 301 301 302 301 300 300 299 299 299 299 299 299 299 299 299 299 299 299 299 298 298 297 297 296 296 295 295 294 294 293 293 292 292 292 291 291 291 290 290 290 290 290 290 290 289 289
298 298 299 299 299 300 300 301 302 302 302 302 303 305 306 306 305 304 302 301 301 301 301 301 301 301 301 301 300 300 299 299 299 299 299 299 300 300 299 299 299 299 298 298 298 297 296 296 295 295 294 293 293 292 292 291 291 291 291 290 290 290 290 290 290 290 290 289 289
297 298 298 299 299 299 299 300 301 302 302 302 303 304 305 306 305 304 302 302 301 301 301 301 301 301 301 301 300 299 299 299 299 299 300 300 300 300 299 299 299 299 299 298 298 297 296 295 295 294 293 293 292 292 291 291 291 290 290 290 290 290 290 290 290 290 290 289 289
297 297 297 298 298 298 299 299 300 302 302 302 303 304 305 306 305 304 302 301 301 301 302 301 301 301 301 300 300 300 299 300 300 300 300 300 300 300 300 300 299 299 299 298 297 296 295 295 294 293 292 292 291 291 291 290 290 290 290 290 290 290 290 290 290 290 290 289 289
297 297 297 298 298 298 298 299 300 301 302 302 302 303 304 305 305 304 303 302 302 302 302 301 301 301 301 300 300 300 300 300 300 300 300 300 300 300 300 300 300 299 298 297 296 295 294 293 293 292 292 291 291 290 290 290 290 290 290 289 290 290 290 290 290 290 290 289 289
297 297 297 297 297 298 298 299 300 301 301 302 302 302 303 304 305 305 304 302 302 302 302 301 301 301 301 300 300 300 300 300 300 300 300 300 300 301 301 300 300 299 297 296 294 293 293 292 292 292 292 291 290 290 290 290 289 289 289 290 290 290 290 290 290 290 290 289 289
296 296 296 296 296 297 297 298 299 300 301 302 302 302 303 304 305 305 304 303 302 302 301 301 301 301 301 301 301 301 301 301 300 301 301 301 301 301 301 300 299 298 296 295 294 293 292 292 292 292 291 291 290 290 290 290 289 289 289 289 289 290 290 290 290 290 289 289 289
296 296 296 295 296 296 296 297 297 298 299 301 301 302 302 303 304 304 304 302 302 301 301 301 301 301 301 301 301 301 301 300 300 300 300 300 300 300 300 299 297 296 295 295 294 293 292 292 291 291 291 291 290 290 290 290 290 289 289 289 289 289 289 289 289 289 289 289 289
296 296 295 295 295 295 295 295 296 297 298 299 300 301 302 303 304 304 303 302 302 301 301 301 301 302 302 301 301 301 301 300 300 300 300 300 299 299 298 297 296 295 294 293 292 291 291 290 291 291 291 291 290 291 291 290 290 290 289 289 289 289 288 288 288 288 288 288 288
295 295 295 295 295 295 294 295 295 296 297 298 299 300 300 302 303 303 303 302 301 301 301 301 301 301 301 301 301 300 301 300 300 299 299 299 298 297 297 296 295 294 293 292 290 290 290 290 290 290 290 291 290 290 290 290 290 290 289 289 289 288 288 288 288 288 288 288 288
295 295 294 295 294 294 294 294 295 295 296 297 298 299 299 301 302 303 303 302 301 301 301 301 301 300 300 301 300 300 299 299 299 299 298 297 296 296 296 296 295 294 293 290 289 289 289 289 289 290 290 291 290 290 290 289 289 289 289 289 289 288 288 287 287 287 287 287 287
295 294 294 294 293 293 293 294 294 295 296 297 297 298 299 300 302 303 303 302 302 301 301 301 301 300 300 300 299 299 299 299 299 298 298 297 295 295 295 295 294 293 292 289 289 289 289 289 289 289 289 289 290 290 289 289 289 289 289 289 288 288 288 288 287 287 287 287 287
295 294 294 293 293 293 293 293 294 294 295 297 297 298 299 300 302 302 302 302 301 301 300 300 300 300 300 298 298 298 298 298 298 297 297 297 295 295 295 294 293 292 290 289 289 289 289 289 289 289 289 289 289 289 289 288 288 288 288 288 288 288 288 288 288 287 287 287 287
294 294 293 292 292 292 293 293 294 295 295 296 297 297 298 299 301 302 302 302 301 301 300 300 300 299 298 297 297 297 297 297 297 297 296 295 294 294 293 293 292 291 289 288 289 289 289 289 289 288 288 288 289 289 289 288 288 288 288 288 288 288 288 288 288 288 288 288 287
293 293 293 292 292 292 293 293 294 294 295 296 297 297 297 298 299 301 302 302 302 301 301 300 299 298 297 297 297 296 296 296 296 296 296 295 293 293 292 292 291 290 289 288 289 289 289 289 288 288 288 288 288 289 289 289 289 288 288 288 288 288 288 288 288 288 288 288 288
293 293 292 292 292 292 292 293 294 294 295 296 296 296 297 297 299 300 302 303 302 301 301 300 298 297 296 296 296 296 295 295 295 295 294 295 293 292 292 291 290 289 288 288 288 288 288 288 288 288 287 287 288 288 289 289 289 289 289 289 289 289 289 289 289 289 289 289 288
293 293 292 292 292 292 292 292 293 294 295 295 296 296 296 296 298 300 302 302 302 301 300 299 298 296 296 295 295 295 294 294 293 293 293 294 293 292 291 290 289 289 288 288 288 288 288 288 287 287 287 287 288 289 289 289 289 289 289 289 289 289 289 289 289 289 289 289 288
293 293 292 292 292 292 292 292 293 293 294 294 295 296 296 296 297 298 300 302 301 300 299 298 298 297 296 295 294 293 293 292 293 292 293 293 292 291 290 290 289 288 288 288 288 288 287 287 287 287 287 287 288 289 289 289 289 289 289 289 289 289 289 289 289 289 289 289 288
292 292 291 291 291 291 291 292 292 292 293 294 295 296 296 296 296 298 299 301 300 299 299 298 298 297 296 295 294 293 292 291 292 292 292 293 292 291 290 290 289 288 287 287 287 287 287 287 286 286 287 287 288 289 289 289 289 289 289 289 289 289 289 289 289 289 289 289 288
292 291 291 291 291 291 291 291 291 292 292 293 294 295 296 296 296 298 299 300 299 298 298 297 297 296 295 294 293 292 291 291 291 291 291 292 291 291 290 289 288 287 287 287 287 287 286 286 286 286 287 288 289 289 289 288 288 288 288 288 288 288 289 289 289 289 289 288 288
291 291 290 290 290 290 291 291 291 292 292 292 293 294 295 296 296 298 300 300 298 297 296 296 296 295 294 293 292 291 291 290 290 290 291 291 291 290 290 289 288 287 287 287 287 286 286 286 286 287 287 288 289 288 288 288 288 288 287 287 287 288 288 288 288 288 288 288 287
290 290 290 289 290 290 291 291 291 291 292 293 294 295 296 296 297 298 299 298 297 296 296 295 295 294 293 292 291 291 290 290 290 290 290 291 291 290 290 289 288 287 286 286 286 286 286 286 286 287 287 288 288 288 287 287 287 287 286 286 286 286 287 287 287 287 287 287 286
289 289 289 289 289 290 290 291 291 292 292 293 294 295 296 296 297 298 299 297 297 296 295 294 294 293 293 292 291 290 289 289 289 289 290 290 291 290 290 289 287 287 286 286 286 286 286 286 286 287 287 287 287 287 287 286 286 286 285 285 285 285 285 285 286 286 286 285 284
289 289 289 289 289 290 290 290 291 292 293 294 295 295 296 296 297 298 298 297 297 296 295 294 293 292 292 290 289 288 288 288 289 289 289 290 291 290 289 289 287 286 286 286 286 286 286 286 286 286 287 287 287 287 286 286 285 285 284 284 284 284 284 284 284 284 284 284 283
288 288 288 289 289 289 290 290 291 292 294 294 295 296 296 297 298 298 298 297 296 295 294 293 292 291 290 289 288 288 287 287 288 289 289 290 290 290 289 289 287 286 286 286 286 286 286 286 286 286 286 286 287 287 286 285 284 283 283 283 283 283 283 283 283 283 283 283 283
Wind_Speed
13 12 11 11 9 9 8 8 7 6 6 6 6 5 5 5 5 4 3 3 3 3 3 3 3 4 6 7 8 9 9 9 10 10 10 10 10 9 9 9 9 9 9 8 6 4 2 2 3 4 5 6 7 7 7 8 10 10 10 9 7 7 8 8 9 10 10 10 8
13 13 12 11 10 9 8 8 8 7 7 6 6 6 5 5 5 4 4 3 2 2 1 1 2 4 7 9 10 11 11 12 12 12 12 12 11 11 11 10 10 10 10 9 8 6 4 3 3 4 5 6 6 6 7 8 9 11 13 14 10 8 7 8 9 9 9 9 8
13 13 12 12 11 11 10 9 9 10 10 9 7 7 6 5 5 4 4 3 3 3 2 2 2 3 5 7 7 8 10 12 13 14 13 13 13 13 13 12 12 12 11 9 8 7 6 5 3 3 5 6 7 6 6 8 9 10 12 15 11 9 8 7 8 8 8 7 8
13 13 13 13 14 14 13 11 12 13 12 10 9 8 7 6 5 5 4 4 4 4 4 3 3 3 4 4 5 6 8 10 13 14 15 14 15 15 15 15 14 13 12 11 10 9 8 7 5 4 4 7 7 6 5 5 7 8 9 10 10 9 9 8 8 8 7 7 8
13 13 12 12 14 14 13 12 14 14 13 11 9 8 7 6 6 5 5 5 5 5 5 5 5 4 4 5 6 7 9 10 11 12 13 15 15 15 15 16 16 15 13 12 11 10 9 8 6 5 6 7 7 6 5 4 6 7 7 7 8 9 9 8 8 8 7 8 8
13 13 13 13 14 13 12 10 13 14 14 12 11 10 9 7 6 6 6 6 5 5 6 7 6 6 7 8 9 9 10 10 10 10 12 14 14 15 15 16 16 15 14 13 13 13 11 9 6 6 6 7 8 8 8 7 6 7 7 7 8 8 9 9 8 8 8 9 9
15 15 15 15 15 14 12 11 11 11 12 12 14 14 12 9 9 8 8 6 6 6 6 7 7 8 9 10 11 11 10 10 10 11 12 12 14 15 15 16 17 17 17 16 15 14 13 11 8 6 6 6 7 8 10 10 9 9 9 8 7 7 8 9 8 8 9 12 12
17 17 17 16 16 16 15 14 12 11 11 11 14 15 15 13 11 10 9 7 7 7 7 7 9 10 11 11 12 12 12 12 12 12 13 13 15 16 16 17 17 18 18 17 17 16 14 12 10 8 7 6 6 8 10 12 12 11 11 10 8 7 7 7 7 7 9 12 12
17 17 17 17 17 17 17 17 14 12 12 13 15 17 16 14 12 11 10 8 8 8 8 8 11 12 13 13 12 12 12 12 13 13 14 15 16 16 16 16 17 18 17 17 17 17 16 12 10 10 9 8 8 9 10 13 13 12 10 9 8 8 8 8 8 7 7 9 9
18 18 18 17 17 18 18 18 16 15 15 16 18 18 17 14 12 11 10 8 8 9 10 10 12 13 13 13 13 12 12 13 13 14 15 16 17 17 17 16 18 18 17 16 16 16 15 12 12 11 11 10 11 12 13 14 14 13 10 7 7 8 9 8 8 7 6 6 7
20 19 18 17 18 18 18 19 17 15 14 15 17 18 17 15 13 12 10 9 9 11 12 12 14 14 14 13 12 13 13 13 13 15 16 17 18 19 19 19 19 19 18 17 16 15 13 12 13 13 13 12 13 14 14 15 16 15 13 10 10 10 11 10 9 8 7 7 8
20 20 19 18 19 19 19 18 16 15 14 15 16 17 17 15 14 12 11 11 11 12 13 14 15 15 14 12 13 13 13 14 15 16 17 19 20 20 21 21 21 21 20 19 16 14 13 13 15 15 15 14 12 12 14 16 16 16 15 13 13 12 12 12 12 10 9 9 10
21 20 20 19 20 19 19 18 17 15 14 14 15 16 16 14 14 13 13 13 13 12 12 14 16 16 15 14 14 14 15 16 17 18 18 20 20 21 21 21 21 21 20 19 16 15 14 15 17 18 17 15 12 12 13 16 16 16 16 15 14 13 13 14 13 12 11 12 11
21 21 21 20 20 19 18 18 16 15 14 14 14 15 15 14 13 13 13 13 13 12 12 13 14 14 15 16 16 16 17 17 19 19 20 20 20 21 21 21 21 21 19 17 16 16 16 17 18 19 18 17 15 14 14 15 15 15 15 15 15 14 14 14 14 13 13 13 13
21 21 21 21 20 19 18 17 16 14 13 13 13 14 14 13 13 13 13 13 13 13 12 12 12 13 15 17 18 19 19 19 20 20 20 20 20 21 20 20 21 20 18 16 16 16 17 18 19 19 19 19 18 17 16 15 14 14 14 15 15 15 15 15 14 14 14 14 14
21 21 21 21 20 19 18 17 15 14 13 12 12 13 13 13 12 13 13 14 13 12 12 13 13 13 15 17 19 20 20 20 20 21 20 20 20 20 20 20 20 19 18 17 16 16 17 18 18 19 20 19 19 18 17 16 15 15 15 15 15 15 16 16 16 15 15 15 14
21 21 21 20 20 20 19 18 16 15 14 14 13 13 13 13 12 13 14 14 12 12 13 15 14 14 15 16 18 19 19 19 20 20 20 20 20 20 20 20 19 19 18 18 17 17 17 17 18 19 20 20 19 18 18 17 17 17 17 17 17 17 17 17 16 16 16 15 15
21 21 21 21 20 20 20 19 18 18 18 18 15 13 13 14 13 13 14 15 14 15 16 17 15 15 16 17 18 17 18 19 19 19 19 19 20 20 19 19 19 18 18 18 18 18 18 18 18 18 19 19 19 19 19 18 18 18 18 18 18 17 17 16 16 15 15 15 14
21 21 21 21 21 20 20 20 19 19 19 19 17 15 14 15 15 15 15 16 17 18 18 18 17 16 17 19 19 18 17 18 20 20 20 19 19 19 19 19 19 19 19 18 18 19 19 19 19 19 18 18 18 18 18 18 18 18 18 18 17 17 16 16 15 14 14 14 14
21 21 21 20 20 20 20 20 20 20 19 19 18 17 16 16 16 16 17 17 18 19 19 20 18 18 18 20 20 19 18 17 19 20 20 19 19 19 19 19 19 19 19 18 18 18 19 19 19 19 19 19 19 19 19 18 18 17 17 16 16 16 15 15 14 14 14 14 13
21 21 20 20 20 20 19 20 20 20 20 20 20 19 17 16 17 17 18 19 19 19 20 20 19 19 20 20 21 20 18 15 17 18 19 19 19 19 19 18 18 18 18 18 18 18 18 18 19 18 18 19 19 19 18 18 17 17 16 15 15 15 15 14 14 14 14 14 13
21 21 20 20 20 20 19 19 19 20 20 20 21 21 19 18 17 18 18 19 19 19 19 19 19 20 20 21 21 20 18 15 16 17 18 18 18 18 18 18 18 18 18 18 18 18 18 18 18 18 18 18 18 18 18 17 17 17 17 16 15 15 15 14 14 14 14 13 13
22 21 20 20 20 20 20 20 19 19 20 20 21 21 20 19 18 18 18 18 18 18 18 17 18 19 20 20 20 20 18 16 17 17 17 17 18 19 19 18 18 18 18 17 17 17 17 17 18 18 18 17 18 18 18 17 17 17 17 17 16 16 15 14 14 14 13 13 12
22 21 20 18 19 20 20 20 20 20 20 20 21 21 20 19 17 17 17 18 18 18 18 16 16 17 18 19 20 19 18 18 18 18 18 18 19 19 20 18 18 17 16 14 15 16 16 15 16 17 17 16 17 17 17 17 16 17 17 17 17 16 15 14 14 14 13 13 11
22 22 21 20 20 20 21 21 21 21 21 21 22 22 20 18 17 17 18 18 18 19 19 18 17 16 17 17 18 18 18 18 19 19 19 19 20 20 19 17 16 15 13 13 15 16 16 15 15 15 15 15 15 15 15 16 16 16 16 16 16 16 15 15 15 14 13 13 11
22 22 22 21 21 21 21 21 21 21 21 21 22 22 21 19 17 17 18 19 19 19 19 19 17 16 15 16 17 17 16 16 17 18 19 19 20 20 19 16 15 13 12 14 17 18 18 17 16 15 14 15 15 15 15 14 15 16 16 16 15 15 15 15 15 14 13 12 12
22 22 21 21 21 21 21 21 21 21 21 21 22 22 22 20 16 16 18 20 19 19 19 18 16 15 14 15 17 17 16 14 15 16 18 19 21 21 19 16 14 12 13 16 19 20 19 19 17 16 15 15 15 14 14 14 15 15 15 15 15 15 15 16 16 15 14 13 14
22 22 22 22 22 21 21 21 21 21 21 21 22 22 22 21 18 17 18 19 19 18 17 15 14 13 12 13 15 17 17 15 14 14 16 18 20 20 19 16 15 14 15 19 21 21 20 20 19 18 16 15 14 14 14 15 15 14 14 14 14 15 15 15 15 14 15 15 14
23 22 22 22 22 21 21 21 21 21 21 21 21 21 21 21 19 17 17 19 19 18 16 13 12 11 11 11 14 15 16 16 14 13 13 16 18 19 18 17 16 16 18 22 23 22 22 21 20 19 17 16 13 12 12 13 13 13 13 12 13 14 14 14 13 14 14 15 15
22 22 21 21 21 21 21 21 21 21 20 20 20 20 20 20 19 17 17 19 20 18 16 14 13 12 13 13 14 15 15 15 13 13 13 16 17 17 17 16 16 17 20 24 24 23 22 21 20 19 18 17 15 13 12 13 13 13 12 12 13 14 15 14 15 15 15 14 15
22 21 21 21 21 21 21 22 21 21 20 19 19 19 20 19 19 17 16 18 18 17 16 16 16 16 16 15 16 16 16 15 14 13 14 15 16 16 16 17 17 18 20 24 24 24 23 22 21 20 19 17 15 13 13 13 13 13 12 13 14 15 15 14 15 15 16 16 15
21 21 21 21 21 21 21 21 21 21 21 20 20 20 19 19 19 17 15 16 17 18 18 19 19 19 18 17 18 18 18 16 15 14 14 15 16 16 16 16 17 19 21 25 24 24 24 23 21 20 18 17 15 14 14 14 14 13 13 14 16 16 15 13 14 15 16 16 15
21 21 21 21 21 21 21 21 21 21 21 20 20 19 19 18 18 16 15 14 16 18 19 19 20 20 19 19 19 18 18 17 16 15 15 15 16 16 16 15 16 18 21 25 25 25 24 23 22 20 18 16 14 14 15 14 13 12 13 14 15 15 15 15 14 14 15 15 14
20 20 20 20 20 20 20 20 20 21 21 20 20 19 18 17 17 16 14 13 14 15 17 17 18 19 19 19 19 18 17 16 15 15 16 16 17 17 16 14 13 17 22 25 25 25 25 24 23 21 18 16 14 14 15 15 13 13 14 14 15 15 14 14 14 14 14 14 12
20 20 20 20 20 20 20 20 20 20 21 20 19 18 17 16 17 17 15 13 13 14 14 15 16 17 17 18 18 18 17 16 16 16 16 17 17 18 17 15 15 18 22 25 25 25 25 25 23 21 18 15 13 13 14 15 14 14 15 16 15 15 15 14 14 14 13 13 12
20 20 19 20 20 20 20 20 20 20 20 19 17 16 16 15 16 16 14 12 13 14 15 15 15 15 16 17 16 16 17 17 17 17 17 18 18 18 18 16 17 20 23 24 25 26 26 26 24 21 18 14 12 12 13 13 13 14 16 16 15 15 15 14 13 13 12 12 12
20 20 19 20 21 21 21 20 19 19 19 19 17 15 14 14 15 14 12 11 14 15 15 15 15 16 16 16 16 16 16 17 17 18 18 18 19 19 19 18 19 20 22 23 25 26 26 26 24 21 18 14 13 12 12 12 12 13 15 15 15 14 14 12 12 12 11 11 11
21 21 20 21 21 22 21 20 19 19 19 19 18 16 14 13 14 12 9 10 14 15 16 16 16 16 16 16 16 16 16 15 16 18 19 19 20 20 20 20 20 20 20 22 24 26 26 25 23 20 17 14 14 13 12 11 12 12 13 13 13 13 12 10 10 10 10 11 11
23 22 22 22 22 22 22 21 20 19 19 18 17 16 14 12 11 9 7 9 12 14 16 17 17 17 16 16 16 16 16 15 15 16 18 19 20 20 21 22 21 20 21 23 24 25 25 24 22 19 16 14 14 13 12 11 13 13 13 12 12 12 11 10 9 9 10 11 11
23 23 22 22 22 22 22 22 21 19 18 17 16 15 13 11 10 7 6 7 10 11 13 15 17 17 16 16 16 16 15 15 14 15 16 18 19 20 21 22 22 22 22 24 25 25 25 23 21 18 16 14 13 12 11 11 13 13 13 12 11 11 10 10 9 9 9 11 11
22 22 23 23 23 23 23 23 22 20 18 17 16 13 11 9 8 6 6 7 8 9 10 12 15 16 16 15 15 15 16 16 15 14 15 17 18 19 20 21 22 22 23 24 26 26 25 23 20 18 15 13 13 12 11 11 12 13 13 12 11 10 10 10 9 9 9 10 10
Wind_Direction
318 317 315 312 308 302 296 288 277 268 262 255 251 248 246 244 241 233 222 219 218 212 200 189 169 158 152 151 139 130 122 113 105 98 91 85 80 74 66 57 50 47 46 46 40 38 49 101 114 114 116 124 135 141 148 157 154 148 142 139 141 140 137 132 136 139 140 140 137
318 317 313 309 304 297 289 282 272 263 256 254 251 248 244 243 243 237 224 203 201 198 198 194 170 164 161 156 148 142 137 132 125 118 111 105 101 96 90 80 70 62 57 52 43 34 32 51 89 106 111 114 119 126 138 153 149 143 140 142 139 134 129 124 130 132 131 130 126
315 313 309 306 303 298 292 285 279 270 263 257 254 248 243 240 240 238 229 204 185 179 180 181 183 175 168 162 155 149 144 141 136 130 124 118 113 109 104 97 88 79 71 64 55 43 30 20 37 83 105 112 114 119 131 145 143 141 141 143 139 133 128 127 130 128 124 121 119
310 309 307 304 302 299 296 294 290 284 276 265 257 251 245 240 239 235 226 206 189 183 181 174 173 175 175 169 157 148 142 140 136 132 128 124 119 116 113 108 101 95 88 83 75 64 49 29 20 32 67 89 94 101 115 134 133 131 131 134 127 123 120 121 125 125 124 123 118
307 305 304 302 299 296 293 293 293 291 286 275 262 251 243 238 235 230 222 208 199 189 176 165 163 165 166 159 147 141 138 136 134 133 131 128 126 125 123 118 115 111 105 100 96 87 75 57 41 34 45 63 68 66 67 85 104 110 111 111 111 111 113 116 124 128 128 125 120
305 304 303 301 297 292 287 283 286 288 287 281 269 257 247 237 231 225 218 209 200 183 169 158 157 157 156 153 148 145 143 141 139 136 133 130 129 128 127 125 123 120 116 114 109 103 95 83 69 54 50 57 63 61 57 57 67 78 86 91 98 104 110 116 123 128 129 126 124
306 305 304 302 300 294 286 275 275 276 278 278 270 262 253 242 234 225 215 203 192 179 169 163 164 163 160 158 155 154 154 152 145 140 136 131 131 131 130 128 125 124 124 124 119 113 108 101 94 81 69 65 67 65 63 63 63 65 68 71 76 87 100 113 121 126 129 129 129
306 305 304 303 301 297 291 281 270 264 263 266 266 263 258 248 236 225 213 199 192 183 176 172 172 170 167 165 163 161 158 156 150 145 140 134 134 134 133 131 130 130 130 130 127 124 121 117 115 110 104 94 88 82 79 77 73 70 66 63 62 65 73 85 95 109 120 127 127
305 304 304 303 301 299 297 291 278 266 259 258 261 262 259 251 237 224 213 202 193 185 179 175 174 174 172 171 168 164 161 159 154 149 144 140 140 139 138 137 137 136 135 134 132 130 129 127 126 125 123 121 117 112 107 102 95 87 80 71 66 65 67 69 71 80 96 110 114
305 305 304 302 301 300 298 296 287 275 264 259 260 259 256 248 235 223 212 201 191 186 182 177 175 176 177 176 171 167 163 161 156 151 147 146 146 146 146 146 144 143 141 140 136 134 133 130 132 134 135 135 134 132 128 123 118 113 107 100 98 95 93 91 89 90 94 102 109
306 305 304 302 301 300 299 297 291 282 270 261 260 257 253 243 231 221 211 198 192 189 186 179 176 177 179 178 174 169 165 163 158 154 152 153 153 153 153 152 150 148 147 145 142 140 138 136 138 140 141 141 140 139 137 134 130 128 127 128 129 127 125 125 126 127 127 129 130
306 305 303 302 302 301 300 298 294 286 275 263 259 256 251 240 228 219 211 200 196 192 188 181 178 178 179 179 175 171 167 164 160 158 157 158 157 157 157 156 154 152 151 149 148 146 144 143 143 143 143 144 143 142 140 138 135 134 136 139 140 141 142 144 145 146 147 148 147
307 305 303 302 302 301 299 298 295 289 279 267 260 255 249 238 225 216 210 203 198 194 190 185 182 180 179 178 175 172 170 167 164 162 161 161 161 160 159 158 157 155 154 154 153 152 150 148 146 145 144 144 143 142 141 139 137 138 139 142 145 147 149 151 152 153 153 154 154
307 305 304 303 302 301 299 298 296 293 285 274 263 254 247 236 223 214 209 204 199 195 192 188 184 183 181 178 175 173 171 169 166 165 164 164 163 162 161 160 159 158 158 157 157 155 153 150 148 146 144 143 141 140 140 139 138 139 141 144 148 150 153 155 156 156 156 157 156
306 305 303 302 301 300 299 298 297 294 290 281 268 258 249 238 223 213 208 204 199 195 192 188 186 183 180 177 175 174 172 169 167 166 166 166 165 165 164 163 162 161 160 159 158 156 153 150 148 145 143 142 141 140 140 139 140 141 145 148 151 154 156 159 160 160 159 159 158
305 304 303 301 301 300 299 298 297 295 292 285 273 264 256 244 226 213 206 202 197 194 191 189 186 182 178 176 175 173 171 169 168 168 168 168 168 167 166 165 164 162 160 159 157 155 153 150 147 145 143 141 141 141 142 143 145 147 151 154 157 159 160 162 163 162 161 160 159
305 303 302 301 300 299 299 298 297 295 293 288 278 269 260 251 233 216 205 199 195 192 191 190 186 181 177 175 175 174 172 171 169 169 170 171 171 170 169 167 165 163 161 159 156 154 152 150 147 145 143 142 143 145 147 149 152 155 158 160 162 163 164 164 163 162 160 160 158
304 303 302 301 300 299 298 298 297 296 294 291 284 274 263 255 239 221 207 198 195 193 191 190 187 182 177 175 176 176 175 173 172 172 173 174 174 172 170 168 165 163 161 160 157 155 152 150 147 145 144 145 147 150 153 155 157 160 162 163 163 163 163 162 160 158 157 157 155
304 303 302 301 299 298 297 297 297 296 294 292 288 280 268 258 243 226 211 200 197 194 192 190 188 183 179 177 178 178 177 176 175 175 176 176 175 173 171 168 166 164 163 161 158 155 152 150 148 147 148 149 152 154 156 157 159 160 160 160 160 159 158 156 155 154 153 153 152
303 303 302 300 299 298 297 296 296 295 294 292 289 283 274 262 246 229 214 203 199 196 193 190 188 184 181 179 180 180 180 179 179 178 177 177 175 173 170 168 166 165 163 160 157 154 152 150 150 150 151 152 154 155 156 156 156 156 155 154 154 153 152 151 150 150 150 150 150
302 302 302 300 299 297 295 294 294 293 293 291 288 284 277 267 251 233 218 205 200 198 196 192 189 186 183 181 181 181 181 182 182 181 179 177 174 171 169 167 166 164 162 159 156 154 152 152 152 152 153 153 154 154 154 153 152 151 150 149 149 149 149 148 148 148 147 147 148
303 303 302 301 299 297 295 293 292 292 291 289 287 284 279 271 255 238 221 207 201 199 197 193 191 188 185 183 182 182 182 183 184 182 179 176 173 170 167 166 165 163 160 158 156 154 153 153 153 153 153 153 153 152 151 151 149 148 147 146 146 146 146 146 145 145 144 144 145
304 304 303 301 299 297 295 293 292 290 289 287 285 283 279 272 258 240 223 208 202 199 197 194 192 189 186 185 183 182 181 183 184 182 179 175 171 168 166 165 164 162 160 158 156 155 155 154 154 154 154 153 152 151 150 148 147 146 146 145 144 144 144 143 142 141 141 141 141
303 303 303 301 299 298 296 294 291 289 288 286 285 283 278 270 257 240 223 207 201 198 195 193 191 188 186 185 184 182 181 181 182 180 178 173 170 167 165 164 163 162 161 158 157 157 156 154 155 155 155 153 152 150 148 148 146 145 144 144 143 142 141 140 139 139 138 138 138
303 302 301 299 299 297 296 294 291 289 287 287 286 284 280 271 257 241 225 208 200 196 194 193 191 188 186 185 184 183 182 181 179 178 175 172 169 166 164 163 162 160 159 157 155 154 154 154 155 155 154 152 149 147 146 146 145 144 143 143 142 141 139 138 138 138 138 137 133
301 300 300 299 298 297 295 293 291 289 287 287 286 285 282 275 260 243 228 211 201 197 194 192 190 187 185 183 183 183 182 180 177 175 172 170 168 166 164 162 160 158 156 155 153 152 152 153 153 152 151 149 147 146 145 144 143 142 142 142 141 140 139 139 139 139 137 133 127
300 299 299 299 298 296 294 292 290 288 286 285 285 285 284 280 266 246 229 214 204 198 194 192 189 185 183 182 182 182 181 179 175 173 171 170 168 166 163 160 157 156 154 153 152 152 152 152 151 149 148 146 145 145 144 142 142 141 141 141 141 141 141 141 141 139 136 132 128
299 299 299 299 297 296 293 291 289 286 284 283 283 283 284 283 271 252 232 215 204 198 194 190 185 182 180 181 182 181 180 177 173 171 171 171 168 166 163 160 156 154 153 152 152 152 151 151 149 147 145 143 142 142 141 140 141 142 142 142 143 143 143 142 141 140 138 135 133
298 298 298 298 296 295 293 290 287 285 283 282 282 282 283 284 276 258 236 215 204 197 192 186 181 178 177 180 181 180 178 174 170 168 170 173 170 167 163 158 155 152 151 152 152 152 150 149 146 144 142 140 140 141 142 143 143 144 144 145 146 146 145 144 143 142 141 139 139
298 298 297 296 295 294 292 290 287 285 283 282 281 281 282 284 279 263 239 216 203 196 189 181 176 175 176 177 179 178 177 174 169 168 170 173 171 168 163 158 154 152 151 153 152 151 149 147 144 141 139 138 139 141 143 145 146 146 147 147 148 148 147 146 145 145 144 143 142
297 296 296 295 295 293 292 291 289 286 284 281 280 279 280 281 279 266 243 216 203 194 186 178 175 174 173 173 175 175 175 172 169 169 171 174 172 168 163 157 153 151 152 154 152 150 147 145 142 139 138 138 140 143 145 147 147 147 148 149 150 149 148 146 147 147 146 145 143
296 296 296 295 294 293 292 292 290 288 285 282 279 278 277 278 279 270 249 219 203 193 186 180 176 172 170 170 172 173 172 169 168 169 172 175 172 168 163 155 152 152 153 154 152 148 145 142 140 138 137 138 141 144 146 146 146 146 147 148 148 148 148 147 147 147 146 145 144
296 296 295 294 293 293 293 293 292 290 287 284 280 277 276 277 279 272 255 223 203 192 185 180 175 171 169 170 170 170 169 166 165 166 170 174 171 166 161 154 152 153 154 155 151 147 143 140 138 137 137 139 141 144 145 144 144 144 145 146 146 146 145 145 145 146 146 145 144
296 296 295 294 293 292 292 292 291 290 288 284 280 277 275 275 277 273 259 226 202 189 181 176 172 169 167 167 166 164 162 160 160 163 168 173 170 166 161 156 154 154 155 154 150 145 142 140 138 138 138 140 142 144 145 143 142 141 142 142 142 143 143 144 144 145 146 145 145
297 296 295 294 293 291 290 290 289 288 286 283 279 276 273 273 276 273 260 225 197 182 175 172 169 167 165 164 162 160 158 155 156 160 167 172 169 165 161 157 153 154 155 154 148 145 142 140 139 139 139 141 143 143 142 141 139 139 139 139 139 140 141 142 144 145 145 146 145
297 297 295 293 292 290 289 287 286 286 284 283 279 275 273 273 275 271 257 218 189 176 170 168 166 164 163 162 161 160 158 155 155 159 166 171 169 164 159 153 150 152 154 152 147 144 143 142 141 141 141 143 142 141 140 138 136 136 137 136 137 138 140 141 142 144 145 146 146
297 296 295 293 291 290 289 287 285 284 283 282 279 276 273 273 275 270 251 204 181 172 168 165 164 163 163 162 161 160 158 155 154 158 165 171 169 163 155 148 148 151 152 151 147 145 144 144 143 144 144 144 142 139 137 135 133 134 134 133 134 135 136 137 139 142 143 145 146
298 297 295 293 292 291 289 287 285 283 282 282 281 279 277 276 277 269 242 192 178 171 167 164 164 163 163 161 159 158 157 154 154 158 164 171 169 161 152 146 147 150 151 150 147 147 146 146 146 147 146 144 141 138 136 134 133 133 133 132 132 133 134 134 136 138 140 140 140
298 297 295 293 291 290 289 287 285 282 281 280 280 279 277 275 274 262 229 187 179 172 166 163 163 161 159 157 155 154 154 153 154 158 163 170 169 161 153 148 149 150 151 150 149 149 149 149 149 148 146 143 140 138 136 134 134 133 132 131 131 132 133 133 134 134 134 134 134
297 296 294 292 291 289 288 287 284 282 280 279 279 278 275 270 265 248 211 185 181 173 166 161 159 157 154 153 152 151 151 151 153 158 163 169 167 161 155 150 150 150 151 152 152 151 151 151 150 148 146 142 140 138 136 135 135 134 134 134 134 135 135 135 134 133 133 133 134
296 295 293 291 290 288 287 286 284 282 280 278 277 275 271 264 251 225 194 179 176 169 162 157 154 152 150 150 149 149 148 149 152 157 163 169 165 160 155 151 150 151 152 154 154 154 153 152 150 149 147 142 140 139 137 136 136 136 137 138 138 138 137 137 137 136 137 139 141